Le nostre stazioni meteo in Italia

Pubblicità
Il mio iltempo24.it
Foggia Amendola, Italia (16261): Temperatura & dewpoint: 15.04.2019 09:00:00 - 21.04.2019 09:00:00 (CEST)Foggia Amendola, Italia (16261): velocità del vento: 15.04.2019 09:00:00 - 21.04.2019 09:00:00 (CEST)Foggia Amendola, Italia (16261): direzione del vento: 15.04.2019 09:00:00 - 21.04.2019 09:00:00 (CEST)Foggia Amendola, Italia (16261): reduced air pressure: 15.04.2019 09:00:00 - 21.04.2019 09:00:00 (CEST)Foggia Amendola, Italia (16261): visibility: 15.04.2019 09:00:00 - 21.04.2019 09:00:00 (CEST)Foggia Amendola, Italia (16261): ore di luce: 15.04.2019 09:00:00 - 21.04.2019 09:00:00 (CEST)
Data & Tempo tt [°C] td [°C] ff [km/h] ff [kn] dd ppp [hPa] vv [km] sd [min]
21.04.2019 09:00:00 - - - - - - - -
21.04.2019 08:00:00 - - - - - - - -
21.04.2019 07:00:00 - - - - - - - -
21.04.2019 06:00:00 - - - - - - - -
21.04.2019 05:00:00 - - - - - - - -
21.04.2019 04:00:00 - - - - - - - -
21.04.2019 03:00:00 - - - - - - - -
21.04.2019 02:00:00 - - - - - - - -
21.04.2019 01:00:00 - - - - - - - -
21.04.2019 00:00:00 - - - - - - - -
20.04.2019 23:00:00 - - - - - - - -
20.04.2019 22:00:00 - - - - - - - -
20.04.2019 21:00:00 - - - - - - - -
20.04.2019 20:00:00 15,4 11,0 8 4 ONO 1023,1 15 -
20.04.2019 19:00:00 18,0 8,0 4 2 - - 10 -
20.04.2019 18:00:00 20,0 3,0 9 5 E - 10 -
20.04.2019 17:00:00 21,0 8,3 4 2 N 1023,1 25 -
20.04.2019 16:00:00 21,0 8,0 9 5 O - 10 -
20.04.2019 15:00:00 21,0 8,0 5 3 - - 10 -
20.04.2019 14:00:00 20,8 7,8 9 5 OSO 1024,4 25 -
20.04.2019 13:00:00 20,0 7,0 9 5 ONO - 10 -
20.04.2019 12:00:00 19,0 7,0 15 8 O - 10 -
20.04.2019 11:00:00 18,2 7,3 18 10 ONO 1025,2 25 -
20.04.2019 10:00:00 17,0 7,0 15 8 ONO - 10 -
20.04.2019 09:00:00 14,0 8,0 21 11 ONO - 10 -
20.04.2019 08:00:00 10,0 6,7 18 10 ONO 1025,2 10 -
20.04.2019 07:00:00 8,0 5,0 16 9 ONO - 10 -
20.04.2019 06:00:00 7,0 5,0 16 9 ONO - 10 -
20.04.2019 05:00:00 7,0 4,8 16 9 O 1025,5 10 -
20.04.2019 04:00:00 8,0 6,0 15 8 O - 10 -
20.04.2019 03:00:00 8,0 6,0 13 7 O - 10 -
20.04.2019 02:00:00 8,6 5,5 13 7 O 1026,5 12 -
20.04.2019 01:00:00 - - - - - - - -
20.04.2019 00:00:00 - - - - - - - -
19.04.2019 23:00:00 - - - - - - - -
19.04.2019 22:00:00 - - - - - - - -
19.04.2019 21:00:00 - - - - - - - -
19.04.2019 20:00:00 13,8 11,5 5 3 SSE 1026,2 15 30
19.04.2019 19:00:00 16,0 11,0 8 4 ESE - 10 -
19.04.2019 18:00:00 18,0 10,0 11 6 E - 10 -
19.04.2019 17:00:00 18,0 10,9 11 6 E 1026,0 10 60
19.04.2019 16:00:00 18,0 10,0 13 7 E - 10 -
19.04.2019 15:00:00 18,0 9,0 9 5 E - 10 -
19.04.2019 14:00:00 19,0 9,5 11 6 E 1026,7 20 60
19.04.2019 13:00:00 19,0 7,0 8 4 - - 10 -
19.04.2019 12:00:00 18,0 6,0 5 3 E - 10 -
19.04.2019 11:00:00 17,0 5,0 8 4 ESE 1027,1 20 60
19.04.2019 10:00:00 14,0 7,0 5 3 NNO - 10 -
19.04.2019 09:00:00 12,0 8,0 11 6 NO - 10 -
19.04.2019 08:00:00 8,4 5,3 11 6 ONO 1026,3 15 30
19.04.2019 07:00:00 6,0 4,0 8 4 O - 10 -
19.04.2019 06:00:00 5,0 3,0 9 5 O - 8 -
19.04.2019 05:00:00 6,0 3,8 13 7 O 1025,5 12 -
19.04.2019 04:00:00 7,0 5,0 15 8 ONO - 10 -
19.04.2019 03:00:00 8,0 5,0 13 7 O - 10 -
19.04.2019 02:00:00 8,0 6,0 11 6 O 1025,0 12 -
19.04.2019 01:00:00 8,0 6,0 15 8 O - 10 -
19.04.2019 00:00:00 - - - - - - - -
18.04.2019 23:00:00 - - - - - - - -
18.04.2019 22:00:00 12,0 6,0 8 4 N - 10 -
18.04.2019 21:00:00 11,0 9,0 8 4 OSO - 10 -
18.04.2019 20:00:00 12,4 8,1 8 4 SSO 1023,1 10 0
18.04.2019 19:00:00 14,0 7,0 9 5 SSE - 10 -
18.04.2019 18:00:00 17,0 6,0 13 7 SE - 10 -
18.04.2019 17:00:00 17,6 5,5 15 8 ESE 1022,0 10 60
18.04.2019 16:00:00 18,0 6,0 16 9 E - 10 -
18.04.2019 15:00:00 18,0 6,0 15 8 E - 10 -
18.04.2019 14:00:00 18,4 5,6 16 9 E 1021,7 10 60
18.04.2019 13:00:00 19,0 6,0 16 9 E - 10 -
18.04.2019 12:00:00 18,0 7,0 9 5 SE - 10 -
18.04.2019 11:00:00 17,0 7,4 9 5 NO 1021,2 10 60
18.04.2019 10:00:00 15,0 10,0 18 10 O - 10 -
18.04.2019 09:00:00 14,0 10,0 15 8 ONO - 10 -
18.04.2019 08:00:00 9,4 7,7 9 5 O 1021,1 10 0
18.04.2019 07:00:00 8,0 6,0 9 5 O - 10 -
18.04.2019 06:00:00 9,0 5,0 16 9 ONO - 10 -
18.04.2019 05:00:00 7,6 4,2 21 11 O 1019,6 12 -
18.04.2019 04:00:00 7,0 4,0 21 11 O - 10 -
18.04.2019 03:00:00 8,0 5,0 15 8 OSO - 10 -
18.04.2019 02:00:00 8,4 6,4 16 9 O 1020,0 12 -
18.04.2019 01:00:00 8,0 7,0 13 7 O - 10 -
18.04.2019 00:00:00 8,0 7,0 15 8 OSO - 10 -
17.04.2019 23:00:00 10,0 6,7 15 8 OSO 1019,9 12 -
17.04.2019 22:00:00 11,0 8,0 15 8 O - 10 -
17.04.2019 21:00:00 11,0 7,0 15 8 O - 10 -
17.04.2019 20:00:00 12,2 7,3 13 7 O 1019,0 12 36
17.04.2019 19:00:00 15,0 6,0 18 10 ONO - 10 -
17.04.2019 18:00:00 17,0 4,0 21 11 ONO - 10 -
17.04.2019 17:00:00 18,0 4,2 24 13 ONO 1018,2 20 60
17.04.2019 16:00:00 19,0 4,0 24 13 ONO - 10 -
17.04.2019 15:00:00 19,0 4,0 24 13 ONO - 10 -
17.04.2019 14:00:00 18,2 2,5 28 15 ONO 1018,7 20 60
17.04.2019 13:00:00 18,0 3,0 26 14 ONO - 10 -
17.04.2019 12:00:00 17,0 7,0 24 13 O - 10 -
17.04.2019 11:00:00 16,2 9,2 26 14 ONO 1019,2 12 60
17.04.2019 10:00:00 14,0 9,0 18 10 O - 8 -
17.04.2019 09:00:00 11,0 9,0 11 6 O - 6 -
17.04.2019 08:00:00 8,2 5,8 9 5 O 1019,1 5 6
17.04.2019 07:00:00 7,0 4,0 11 6 ONO - 6 -
17.04.2019 06:00:00 6,0 4,0 11 6 O - 10 -
17.04.2019 05:00:00 6,0 3,8 5 3 ONO 1018,7 12 -
17.04.2019 04:00:00 6,0 4,0 9 5 NO - 10 -
17.04.2019 03:00:00 7,0 5,0 9 5 O - 10 -
17.04.2019 02:00:00 7,0 5,2 11 6 ONO 1019,2 10 -
17.04.2019 01:00:00 8,0 6,0 11 6 O - 10 -
17.04.2019 00:00:00 - - - - - - - -
16.04.2019 23:00:00 - - - - - - - -
16.04.2019 22:00:00 - - - - - - - -
16.04.2019 21:00:00 11,0 10,0 8 4 O - 10 -
16.04.2019 20:00:00 12,6 11,2 5 3 SSE 1018,5 12 30
16.04.2019 19:00:00 16,0 11,0 9 5 SE - 10 -
16.04.2019 18:00:00 17,0 10,0 15 8 E - 10 -
16.04.2019 17:00:00 18,6 9,1 13 7 E 1017,7 15 60
16.04.2019 16:00:00 19,0 8,0 9 5 ENE - 10 -
16.04.2019 15:00:00 20,0 11,0 15 8 NNE - 10 -
16.04.2019 14:00:00 18,8 8,5 16 9 ONO 1018,4 15 60
16.04.2019 13:00:00 18,0 8,0 11 6 O - 10 -
16.04.2019 12:00:00 17,0 11,0 18 10 ONO - 10 -
16.04.2019 11:00:00 15,8 11,0 18 10 O 1018,3 15 60
16.04.2019 10:00:00 14,0 10,0 18 10 ONO - 10 -
16.04.2019 09:00:00 12,0 9,0 21 11 O - 10 -
16.04.2019 08:00:00 9,8 7,9 18 10 O 1018,1 12 30
16.04.2019 07:00:00 9,0 7,0 21 11 ONO - 10 -
16.04.2019 06:00:00 8,0 8,0 18 10 ONO - 10 -
16.04.2019 05:00:00 8,8 7,9 16 9 O 1017,4 12 -
16.04.2019 04:00:00 9,0 8,0 18 10 ONO - 10 -
16.04.2019 03:00:00 9,0 8,0 18 10 ONO - 10 -
16.04.2019 02:00:00 10,0 8,3 24 13 ONO 1017,6 12 -
16.04.2019 01:00:00 10,0 8,0 16 9 ONO - 10 -
16.04.2019 00:00:00 11,0 9,0 22 12 ONO - 10 -
15.04.2019 23:00:00 - - - - - - - -
15.04.2019 22:00:00 - - - - - - - -
15.04.2019 21:00:00 - - - - - - - -
15.04.2019 20:00:00 12,2 10,8 21 11 ONO 1016,9 12 0
15.04.2019 19:00:00 13,0 11,0 24 13 NO - 10 -
15.04.2019 18:00:00 16,0 9,0 22 12 NO - 10 -
15.04.2019 17:00:00 16,2 10,1 22 12 ONO 1014,2 15 36
15.04.2019 16:00:00 14,0 12,0 5 3 - - 10 -
15.04.2019 15:00:00 14,0 12,0 9 5 O - 10 -
15.04.2019 14:00:00 14,8 11,4 11 6 ENE 1014,2 10 30
15.04.2019 13:00:00 12,0 10,0 8 4 NE - 7 -
15.04.2019 12:00:00 14,0 11,0 18 10 E - 6 -
15.04.2019 11:00:00 11,2 8,6 5 3 N 1013,1 7 0
15.04.2019 10:00:00 10,0 8,0 9 5 NO - 4,0 -
15.04.2019 09:00:00 10,0 8,0 13 7 ONO - 10 -

tt = Temperatura
td = dewpoint
ff = velocità del vento
dd = direzione del vento
ppp = reduced air pressure
vv = visibility
sd = ore di luce

Stazioni seguenti

WeatherPro
AMSI
MeteoEarth